WI1SKY Weather Reports


Display with metric or nautical units.
time (UTC)temp
F
wind
direction
speed
MPH
gust
MPH
rain 1hr
in
rain 24hr
in
rain mn
in
humidity
%
barometer
mb
20260831133231 75 184 0.0 0.0 0.00 0.09 0.00 85 1008.7
20260831132730 75 184 0.0 0.0 0.00 0.09 0.00 86 1008.8
20260831132230 74 184 0.0 0.0 0.00 0.09 0.00 87 1008.8
20260831131730 74 184 0.0 0.0 0.00 0.09 0.00 87 1008.8
20260831131536 74 184 0.0 2.0 0.00 0.09 0.00 88 1008.7
20260831130730 74 184 0.0 2.0 0.00 0.09 0.00 87 1008.7
20260831130231 74 184 0.0 0.0 0.00 0.09 0.00 88 1008.6
20260831125731 74 184 0.0 0.0 0.00 0.09 0.00 88 1008.7
20260831125229 73 184 0.0 0.0 0.00 0.09 0.00 88 1008.6
20260831124730 73 184 0.0 0.0 0.00 0.09 0.00 88 1008.5
20260831124231 73 184 0.0 0.0 0.00 0.09 0.00 88 1008.5
20260831123730 73 184 0.0 0.0 0.00 0.09 0.00 88 1008.5
20260831123230 73 184 0.0 0.0 0.00 0.09 0.00 87 1008.6
20260831122730 73 184 0.0 0.0 0.00 0.09 0.00 87 1008.5
20260831122229 73 184 0.0 0.0 0.00 0.09 0.00 87 1008.4
20260831121730 73 184 0.0 0.0 0.00 0.09 0.00 87 1008.3
20260831121230 73 184 0.0 0.0 0.00 0.09 0.00 87 1008.1
20260831120731 73 184 0.0 0.0 0.00 0.09 0.00 87 1008.1
20260831120230 73 184 0.0 0.0 0.00 0.09 0.00 87 1008.2
20260831115730 73 184 0.0 0.0 0.00 0.09 0.00 86 1008.2
20260831115229 73 184 0.0 0.0 0.00 0.09 0.00 86 1008.2
20260831114729 73 184 0.0 0.0 0.00 0.09 0.00 86 1008.3
20260831114229 73 184 0.0 2.0 0.00 0.09 0.00 86 1008.4
20260831113732 73 184 1.0 2.0 0.00 0.09 0.00 85 1008.3
20260831113539 73 184 0.0 2.0 0.00 0.09 0.00 85 1008.1
20260831112729 73 184 0.0 1.0 0.00 0.09 0.00 85 1008.1
20260831112605 74 184 0.0 0.0 0.00 0.09 0.00 85 1008.3
20260831112557 74 184 0.0 0.0 0.00 0.09 0.00 85 1008.2
20260831112552 74 184 1.0 2.0 0.00 0.09 0.00 85 1008.2
20260831112545 74 184 0.0 2.0 0.00 0.09 0.00 85 1008.2
20260831110229 74 184 0.0 2.0 0.00 0.09 0.00 85 1008.1
20260831105729 74 184 1.0 3.0 0.00 0.09 0.00 84 1008.0
20260831105229 74 184 2.0 3.0 0.00 0.09 0.00 84 1008.1
20260831104729 74 184 2.0 4.0 0.00 0.09 0.00 84 1008.2
20260831104229 74 184 2.0 4.0 0.00 0.09 0.00 83 1008.1
20260831103730 74 184 3.0 4.0 0.00 0.09 0.00 83 1008.2
20260831103534 75 189 2.0 4.0 0.00 0.09 0.00 83 1008.2
20260831102724 75 190 2.0 4.0 0.00 0.09 0.00 83 1008.2
20260831102224 75 189 3.0 5.0 0.00 0.09 0.00 83 1008.2
20260831101721 75 188 3.0 5.0 0.00 0.09 0.00 83 1008.2
20260831101218 75 212 3.0 5.0 0.00 0.09 0.00 83 1008.1
20260831100716 75 194 3.0 5.0 0.00 0.09 0.00 83 1008.1
20260831100216 75 178 2.0 7.0 0.00 0.09 0.00 83 1008.1
20260831095716 74 186 2.0 7.0 0.00 0.09 0.00 83 1008.2
20260831095216 74 190 2.0 6.0 0.00 0.09 0.00 83 1008.2
20260831094714 74 188 2.0 4.0 0.00 0.09 0.00 83 1008.2
20260831094213 74 185 2.0 4.0 0.00 0.09 0.00 83 1008.2
20260831093712 75 182 2.0 4.0 0.00 0.09 0.00 83 1008.3
20260831093515 74 182 2.0 4.0 0.00 0.09 0.00 83 1008.3
20260831092714 74 182 2.0 4.0 0.00 0.09 0.00 83 1008.4
20260831092212 74 175 2.0 3.0 0.00 0.09 0.00 83 1008.3
20260831091711 74 175 2.0 3.0 0.00 0.09 0.00 83 1008.5
20260831091211 74 175 1.0 4.0 0.00 0.09 0.00 83 1008.5
20260831090712 74 175 1.0 4.0 0.00 0.09 0.00 83 1008.5
20260831090525 75 186 2.0 5.0 0.00 0.09 0.00 83 1008.5
20260831085710 75 186 3.0 6.0 0.00 0.09 0.00 83 1008.6
20260831085211 75 180 3.0 6.0 0.00 0.09 0.00 83 1008.4
20260831084709 75 195 3.0 6.0 0.00 0.09 0.00 83 1008.4
20260831084210 75 172 3.0 6.0 0.00 0.09 0.00 82 1008.4
20260831083711 75 175 3.0 5.0 0.00 0.09 0.00 82 1008.4
20260831083210 75 184 3.0 6.0 0.00 0.09 0.00 82 1008.3
20260831082710 75 202 2.0 6.0 0.00 0.09 0.00 82 1008.4
20260831082209 75 231 2.0 5.0 0.00 0.09 0.00 83 1008.4
20260831081706 75 232 2.0 5.0 0.00 0.09 0.00 83 1008.4
20260831081204 75 201 1.0 3.0 0.00 0.09 0.00 83 1008.5
20260831080703 74 201 1.0 3.0 0.00 0.09 0.00 83 1008.5
20260831080202 74 229 1.0 3.0 0.00 0.09 0.00 83 1008.5
20260831080012 74 229 1.0 3.0 0.00 0.09 0.00 84 1008.6
20260831075202 74 232 1.0 3.0 0.00 0.09 0.00 84 1008.5
20260831074702 74 232 0.0 3.0 0.00 0.09 0.00 84 1008.6
20260831074203 74 246 0.0 2.0 0.00 0.09 0.00 84 1008.6
20260831074016 74 246 0.0 5.0 0.00 0.09 0.00 83 1008.6
20260831073508 74 246 0.0 5.0 0.00 0.09 0.00 83 1008.6
20260831072701 74 229 0.0 0.0 0.00 0.09 0.00 84 1008.7
20260831072201 74 229 0.0 0.0 0.00 0.09 0.00 83 1008.7
20260831071702 75 229 0.0 0.0 0.00 0.09 0.00 82 1008.8
20260831071201 75 229 0.0 0.0 0.00 0.09 0.00 82 1008.9
20260831070701 75 229 0.0 0.0 0.00 0.09 0.00 82 1008.9
20260831070200 75 229 0.0 0.0 0.00 0.09 0.00 82 1009.0
20260831065700 75 194 0.0 0.0 0.00 0.09 0.00 81 1009.0
20260831065322 76 194 1.0 3.0 0.00 0.09 0.00 80 1009.0
20260831065253 76 194 0.0 2.0 0.00 0.09 0.00 81 1009.0
20260831064203 76 194 2.0 5.0 0.00 0.09 0.00 80 1009.0
20260831063702 76 194 2.0 5.0 0.00 0.09 0.00 80 1009.1
20260831063205 76 202 1.0 4.0 0.00 0.09 0.00 80 1009.1
20260831062704 76 190 1.0 3.0 0.00 0.09 0.00 80 1009.3
20260831062205 76 186 1.0 3.0 0.00 0.09 0.00 80 1009.3
20260831061706 76 186 1.0 3.0 0.00 0.09 0.00 80 1009.4
20260831061205 76 186 1.0 3.0 0.00 0.09 0.00 80 1009.4
20260831060703 76 232 1.0 3.0 0.00 0.09 0.00 80 1009.5
20260831060515 76 227 1.0 3.0 0.00 0.09 0.00 79 1009.6
20260831060020 76 186 1.0 3.0 0.00 0.09 0.00 79 1009.5
20260831055201 76 186 2.0 4.0 0.00 0.09 0.00 79 1009.6
20260831055008 76 186 2.0 5.0 0.00 0.09 0.00 79 1009.6
20260831054515 76 214 2.0 5.0 0.00 0.09 0.00 79 1009.6
20260831053702 76 182 2.0 4.0 0.00 0.09 0.00 79 1009.7
20260831053201 76 184 2.0 5.0 0.00 0.09 0.00 79 1009.8
20260831053010 76 163 2.0 5.0 0.00 0.09 0.00 79 1009.8
20260831052201 76 164 3.0 7.0 0.00 0.09 0.00 79 1009.9
20260831051701 76 161 4.0 7.0 0.00 0.09 0.00 79 1009.9
20260831051201 76 189 3.0 7.0 0.00 0.09 0.00 80 1009.9
20260831050702 75 157 3.0 7.0 0.00 0.09 0.00 80 1009.8
20260831050201 75 176 3.0 6.0 0.00 0.09 0.00 81 1009.9
20260831045701 75 170 2.0 6.0 0.00 0.09 0.09 82 1009.9
20260831045508 74 151 1.0 6.0 0.00 0.09 0.09 83 1009.9
20260831045012 74 98 2.0 9.0 0.00 0.09 0.09 83 1009.8
20260831044201 74 160 2.0 9.0 0.00 0.09 0.09 84 1009.9
20260831043701 74 161 0.0 5.0 0.00 0.09 0.09 85 1009.9
20260831043201 74 203 0.0 0.0 0.00 0.09 0.09 85 1010.0
20260831042703 74 203 0.0 1.0 0.00 0.09 0.09 85 1010.1
20260831042509 73 222 0.0 2.0 0.00 0.09 0.09 86 1010.1
20260831042010 73 219 0.0 3.0 0.00 0.09 0.09 86 1010.1
20260831041325 73 186 1.0 3.0 0.00 0.09 0.09 86 1010.3
20260831041254 73 174 1.0 3.0 0.00 0.09 0.09 86 1010.3
20260831040201 73 186 0.0 2.0 0.00 0.09 0.09 87 1010.4
20260831035701 73 147 0.0 0.0 0.00 0.09 0.09 88 1010.4
20260831035202 73 84 0.0 1.0 0.00 0.09 0.09 88 1010.4
20260831034701 73 84 0.0 1.0 0.00 0.09 0.09 88 1010.4
20260831034201 73 84 1.0 2.0 0.00 0.09 0.09 88 1010.5
20260831033701 73 84 2.0 3.0 0.00 0.09 0.09 88 1010.5
20260831033255 73 81 2.0 6.0 0.00 0.09 0.09 88 1010.5
20260831032201 73 80 3.0 8.0 0.00 0.09 0.09 88 1010.7
20260831031701 73 94 4.0 8.0 0.00 0.09 0.09 88 1010.6
20260831031201 72 71 3.0 7.0 0.00 0.09 0.09 89 1010.7
20260831030701 72 82 2.0 7.0 0.00 0.09 0.09 90 1010.9
20260831030201 72 106 2.0 7.0 0.00 0.09 0.09 90 1011.0
20260831025701 72 79 2.0 7.0 0.00 0.09 0.09 91 1011.0
20260831025202 72 88 2.0 6.0 0.00 0.09 0.09 91 1011.1
20260831024828 72 172 0.0 2.0 0.00 0.09 0.09 91 1011.3
20260831024753 72 113 1.0 4.0 0.00 0.09 0.09 91 1011.3
20260831023701 72 172 0.0 0.0 0.00 0.09 0.09 92 1011.3
20260831023201 72 172 0.0 0.0 0.00 0.09 0.09 92 1011.4
20260831022701 72 172 0.0 0.0 0.00 0.09 0.09 92 1011.5
20260831022204 72 172 0.0 0.0 0.00 0.09 0.09 92 1011.6
20260831021702 73 172 0.0 0.0 0.00 0.09 0.09 92 1011.5
20260831021201 73 172 0.0 0.0 0.00 0.09 0.09 92 1011.5
20260831021015 73 172 0.0 0.0 0.00 0.09 0.09 92 1011.6
20260831020508 73 172 0.0 0.0 0.00 0.09 0.09 92 1011.4
20260831015701 73 172 0.0 0.0 0.00 0.09 0.09 92 1011.4
20260831015201 73 172 0.0 0.0 0.00 0.09 0.09 92 1011.3
20260831015008 73 172 0.0 0.0 0.00 0.09 0.09 92 1011.3
20260831014200 73 172 0.0 0.0 0.00 0.09 0.09 92 1011.3
20260831014007 73 172 0.0 0.0 0.00 0.09 0.09 91 1011.2
20260831013200 73 172 0.0 0.0 0.01 0.09 0.09 91 1011.0
20260831012701 73 172 0.0 0.0 0.01 0.09 0.09 91 1011.0
20260831012201 73 172 0.0 0.0 0.01 0.09 0.09 91 1010.9
20260831011701 74 172 0.0 0.0 0.03 0.09 0.09 91 1010.9
20260831011201 74 172 0.0 0.0 0.07 0.09 0.09 91 1010.7
20260831010701 74 172 0.0 0.0 0.09 0.09 0.09 90 1010.7
20260831010202 74 172 0.0 0.0 0.09 0.09 0.09 90 1010.6
20260831005700 74 172 0.0 0.0 0.09 0.09 0.09 89 1010.6
20260831005327 75 172 0.0 0.0 0.09 0.09 0.09 88 1010.5
20260831005256 75 172 0.0 0.0 0.09 0.09 0.09 89 1010.5
20260831004204 75 172 0.0 0.0 0.09 0.09 0.09 87 1010.3
20260831003702 76 172 0.0 0.0 0.09 0.09 0.09 86 1010.1
20260831003203 76 172 0.0 0.0 0.08 0.08 0.08 86 1010.0
20260831002703 76 172 0.0 0.0 0.08 0.08 0.08 85 1009.8
20260831002203 77 172 0.0 0.0 0.08 0.08 0.08 84 1009.8
20260831001702 77 172 0.0 0.0 0.06 0.06 0.06 82 1009.7
20260831001508 77 172 0.0 0.0 0.02 0.02 0.01 81 1009.6
20260831000702 78 172 0.0 0.0 0.00 0.00 0.00 79 1009.6
20260831000203 78 172 0.0 0.0 0.00 0.00 0.00 79 1009.4
20260830235706 78 172 0.0 0.0 0.00 0.00 0.00 78 1009.5
20260830235515 78 172 1.0 3.0 0.00 0.00 0.00 77 1009.6
20260830234703 78 172 2.0 3.0 0.00 0.00 0.00 77 1009.6
20260830234202 78 173 3.0 5.0 0.00 0.00 0.00 76 1009.7
20260830233703 78 172 3.0 5.0 0.00 0.00 0.00 76 1009.6
20260830233200 79 190 3.0 5.0 0.00 0.00 0.00 76 1009.5
20260830233013 79 167 4.0 7.0 0.00 0.00 0.00 75 1009.3
20260830232201 79 174 4.0 7.0 0.00 0.00 0.00 76 1009.5
20260830231701 79 188 3.0 6.0 0.00 0.00 0.00 76 1009.3
20260830231201 79 178 4.0 6.0 0.00 0.00 0.00 77 1009.5
20260830230701 79 172 4.0 6.0 0.00 0.00 0.00 76 1009.5
20260830230202 79 166 4.0 6.0 0.00 0.00 0.00 77 1009.5
20260830225701 79 168 3.0 6.0 0.00 0.00 0.00 77 1009.6
20260830225201 79 175 4.0 8.0 0.00 0.00 0.00 76 1009.5
20260830224703 79 170 5.0 8.0 0.00 0.00 0.00 76 1009.5
20260830224204 80 168 3.0 7.0 0.00 0.00 0.00 76 1009.4
20260830223704 80 169 2.0 5.0 0.00 0.00 0.00 77 1009.5
20260830223201 80 163 3.0 6.0 0.00 0.00 0.00 77 1009.5
20260830222701 80 163 3.0 6.0 0.00 0.00 0.00 76 1009.5
20260830222202 80 173 2.0 4.0 0.00 0.00 0.00 76 1009.4
20260830221700 80 177 2.0 3.0 0.00 0.00 0.00 77 1009.3
20260830221517 80 177 2.0 4.0 0.00 0.00 0.00 77 1009.3
20260830220700 80 177 2.0 4.0 0.00 0.00 0.00 77 1009.3
20260830220201 80 177 1.0 4.0 0.00 0.00 0.00 77 1009.2
20260830215702 80 165 2.0 4.0 0.00 0.00 0.00 76 1009.1
20260830215201 80 165 2.0 5.0 0.00 0.00 0.00 75 1009.1
20260830214702 80 165 3.0 5.0 0.00 0.00 0.00 75 1009.0
20260830214201 80 174 3.0 5.0 0.00 0.00 0.00 76 1009.0
20260830213823 80 174 2.0 5.0 0.00 0.00 0.00 76 1008.9
20260830213754 80 174 3.0 5.0 0.00 0.00 0.00 74 1009.0
20260830212700 80 179 2.0 3.0 0.00 0.00 0.00 76 1008.9
20260830212203 81 179 2.0 3.0 0.00 0.00 0.00 75 1009.0
20260830211704 81 181 2.0 4.0 0.00 0.00 0.00 74 1009.1
20260830211201 81 195 2.0 4.0 0.00 0.00 0.00 75 1009.1
20260830210701 81 200 2.0 3.0 0.00 0.00 0.00 74 1009.1
20260830210201 81 200 2.0 4.0 0.00 0.00 0.00 73 1009.2
20260830205701 81 200 2.0 4.0 0.00 0.00 0.00 72 1009.2
20260830205201 81 189 2.0 4.0 0.00 0.00 0.00 74 1009.3
20260830204701 81 189 2.0 4.0 0.00 0.00 0.00 75 1009.4
20260830204508 81 216 2.0 5.0 0.00 0.00 0.00 74 1009.5
20260830204014 81 216 3.0 7.0 0.00 0.00 0.00 74 1009.4
20260830203509 81 175 3.0 7.0 0.00 0.00 0.00 73 1009.5
20260830202701 80 178 3.0 5.0 0.00 0.00 0.00 76 1009.6
20260830202201 80 184 3.0 5.0 0.00 0.00 0.00 74 1009.6
20260830201701 80 234 3.0 6.0 0.00 0.00 0.00 75 1009.5
20260830201201 80 192 4.0 6.0 0.00 0.00 0.00 74 1009.5
20260830200701 80 184 4.0 7.0 0.00 0.00 0.00 74 1009.6
20260830200514 81 178 3.0 7.0 0.00 0.00 0.00 73 1009.6
20260830195702 81 171 2.0 5.0 0.00 0.00 0.00 74 1009.5
20260830195515 80 202 2.0 5.0 0.00 0.00 0.00 74 1009.6
20260830194702 80 244 3.0 7.0 0.00 0.00 0.00 75 1009.6
20260830194202 80 196 3.0 7.0 0.00 0.00 0.00 73 1009.6
20260830193702 80 185 3.0 6.0 0.00 0.00 0.00 76 1009.6
20260830193204 80 170 3.0 6.0 0.00 0.00 0.00 74 1009.5
20260830192711 80 177 3.0 6.0 0.00 0.00 0.00 74 1009.4
20260830192202 80 194 3.0 7.0 0.00 0.00 0.00 75 1009.4
20260830191701 80 190 3.0 7.0 0.00 0.00 0.00 75 1009.4
20260830191202 80 167 3.0 6.0 0.00 0.00 0.00 76 1009.3
20260830190701 79 182 3.0 6.0 0.00 0.00 0.00 75 1009.4
20260830190201 79 159 3.0 6.0 0.00 0.00 0.00 77 1009.5
20260830190011 79 200 4.0 6.0 0.00 0.00 0.00 76 1009.5
20260830185201 79 172 4.0 6.0 0.00 0.00 0.00 76 1009.5
20260830184702 79 159 4.0 6.0 0.00 0.00 0.00 77 1009.5
20260830184201 80 159 4.0 6.0 0.00 0.00 0.00 76 1009.5
20260830183702 80 154 3.0 5.0 0.00 0.00 0.00 77 1009.5
20260830183202 79 193 3.0 5.0 0.00 0.00 0.00 78 1009.6
20260830182701 79 193 3.0 5.0 0.00 0.00 0.00 77 1009.7
20260830182201 79 172 2.0 5.0 0.00 0.00 0.00 79 1009.6
20260830182008 78 194 1.0 3.0 0.00 0.00 0.00 79 1009.7
20260830181202 78 201 0.0 2.0 0.00 0.00 0.00 79 1009.6
20260830181007 78 201 1.0 3.0 0.00 0.00 0.00 79 1009.6
20260830180202 78 202 1.0 3.0 0.00 0.00 0.00 77 1009.7
20260830180020 78 202 2.0 3.0 0.00 0.00 0.00 78 1009.7
20260830175201 78 202 2.0 4.0 0.00 0.01 0.00 77 1010.1
20260830174701 78 205 2.0 5.0 0.00 0.17 0.00 76 1010.4
20260830174202 78 189 3.0 7.0 0.00 0.28 0.00 76 1010.5
20260830173700 78 192 4.0 7.0 0.00 0.32 0.00 75 1010.5
20260830173201 78 199 4.0 6.0 0.00 0.37 0.00 76 1010.7
20260830172700 79 176 4.0 6.0 0.00 0.46 0.00 75 1010.8
20260830172202 79 179 3.0 6.0 0.00 0.47 0.00 76 1010.9
20260830171702 79 191 3.0 5.0 0.00 0.48 0.00 76 1010.8
20260830171512 79 190 3.0 6.0 0.00 0.49 0.00 75 1010.8
20260830170702 79 192 3.0 6.0 0.00 0.49 0.00 75 1010.9
20260830170202 79 209 3.0 6.0 0.00 0.49 0.00 75 1010.4
20260830165702 79 190 3.0 6.0 0.00 0.49 0.00 75 1010.3
20260830165202 79 198 2.0 5.0 0.00 0.49 0.00 75 1010.3
20260830164702 79 223 1.0 3.0 0.00 0.49 0.00 75 1009.8
20260830164202 79 223 1.0 4.0 0.00 0.49 0.00 75 1009.5
20260830163703 79 223 2.0 4.0 0.00 0.49 0.00 75 1009.4
20260830163202 79 181 2.0 3.0 0.00 0.49 0.00 76 1009.4
20260830162701 79 181 2.0 3.0 0.00 0.49 0.00 75 1009.3
20260830162201 79 173 1.0 3.0 0.00 0.49 0.00 74 1009.3
20260830161701 79 173 0.0 2.0 0.00 0.49 0.00 76 1009.3
20260830161200 78 173 0.0 0.0 0.00 0.49 0.00 77 1009.3
20260830160701 78 173 0.0 1.0 0.00 0.49 0.00 75 1009.3
20260830160200 78 173 1.0 3.0 0.00 0.49 0.00 76 1009.2
20260830155701 78 173 1.0 3.0 0.00 0.49 0.00 75 1009.2
20260830155201 78 173 1.0 3.0 0.00 0.49 0.00 75 1009.1
20260830154701 78 173 0.0 2.0 0.00 0.49 0.00 76 1009.0
20260830154205 78 173 1.0 2.0 0.00 0.49 0.00 76 1009.0
20260830153703 78 182 1.0 2.0 0.00 0.49 0.00 76 1009.2
20260830153201 77 182 1.0 2.0 0.00 0.49 0.00 76 1009.3
20260830152702 77 182 2.0 4.0 0.00 0.49 0.00 76 1009.3
20260830152201 77 182 2.0 4.0 0.00 0.49 0.00 76 1009.3
20260830152013 77 169 2.0 5.0 0.00 0.49 0.00 76 1009.3
20260830151506 77 168 2.0 5.0 0.00 0.49 0.00 77 1009.3
20260830150701 77 223 2.0 3.0 0.00 0.49 0.00 76 1009.3
20260830150201 76 192 1.0 3.0 0.00 0.49 0.00 76 1009.3
20260830145701 76 180 1.0 3.0 0.00 0.49 0.00 78 1009.2
20260830145200 76 180 1.0 3.0 0.00 0.49 0.00 77 1009.2
20260830144701 76 180 2.0 3.0 0.00 0.49 0.00 77 1009.3
20260830144200 76 180 1.0 3.0 0.00 0.49 0.00 78 1009.2
20260830143701 76 180 0.0 3.0 0.00 0.49 0.00 79 1009.1
20260830143201 75 180 0.0 2.0 0.00 0.49 0.00 78 1008.9
20260830142701 75 180 1.0 2.0 0.00 0.49 0.00 79 1009.0
20260830142201 75 180 1.0 3.0 0.00 0.49 0.00 79 1009.1
20260830141820 75 180 0.0 4.0 0.00 0.49 0.00 80 1009.0
20260830141751 75 180 1.0 4.0 0.00 0.49 0.00 79 1009.1
20260830141006 75 162 0.0 0.0 0.00 0.49 0.00 80 1009.2
20260830140506 74 162 0.0 0.0 0.00 0.49 0.00 81 1009.0
20260830135702 74 131 0.0 0.0 0.00 0.50 0.00 82 1009.0
20260830135201 74 131 0.0 0.0 0.00 0.50 0.00 82 1009.0
20260830134701 73 131 0.0 0.0 0.00 0.51 0.00 82 1009.0
20260830134201 73 131 0.0 0.0 0.00 0.51 0.00 82 1009.0
20260830133701 73 130 0.0 0.0 0.00 0.52 0.00 82 1009.3